Altus AFB, OK

6:57 PM CDT on August 22, 2017 (GMT -0500)
Altus Air Force Base

Weather History for KLTS - May, 2013

Change the Weather History Date:

Sunday, May 26, 2013

  Actual Average Record
Temperature  
Mean Temperature 80 °F -  
Max Temperature 93 °F 85 °F 98 °F (2012)
Min Temperature 68 °F 63 °F 54 °F (2015)
Cooling Degree Days 16    
Growing Degree Days 30 (Base 50)    
Moisture  
Dew Point 66 °F    
Average Humidity 68    
Maximum Humidity 100    
Minimum Humidity 36    
Precipitation  
Precipitation 0.01 in - - ()
Sea Level Pressure  
Sea Level Pressure 29.91 in    
Wind  
Wind Speed 16 mph (SSE)    
Max Wind Speed 24 mph    
Max Gust Speed 34 mph    
Visibility 10 miles    
Events      
Averages and records for this station are not official NWS values.
T = Trace of Precipitation, MM = Missing Value Source: NWS Daily Summary

Daily Weather History Graph

Daily Weather History Graph

Search for Another Location

Airport or City:

Trip Planner

Search our weather history database for the weather conditions in past years. The results will help you decide how hot, cold, wet, or windy it might be!

Date:

Astronomy

May. 26, 2013 Rise Set
Actual Time 6:27 AM CDT 8:41 PM CDT
Civil Twilight 5:58 AM CDT 9:10 PM CDT
Nautical Twilight 5:23 AM CDT 9:45 PM CDT
Astronomical Twilight 4:45 AM CDT 10:23 PM CDT
Moon 10:31 PM CDT (5/26) 7:57 AM CDT (5/26)
Length of Visible Light 15h 11m
Length of Day
14h 13m
Waning Gibbous, 96% of the Moon is Illuminated
May 26
Waning Gibbous
May 31
Last Quarter
Jun 8
New
Jun 16
First Quarter
Jun 23
Full

Hourly Weather History & Observations

Time (CDT) Temp. Heat Index Dew Point Humidity Pressure Visibility Wind Dir Wind Speed Gust Speed Precip Events Conditions
12:18 AM 73.4 °F - 68.0 °F 83% 30.02 in 10.0 mi SSE 13.8 mph - N/A   Mostly Cloudy
12:53 AM 73.4 °F - 68.0 °F 83% 30.00 in 10.0 mi SSE 18.4 mph - N/A   Scattered Clouds
12:58 AM 72.9 °F - 67.8 °F 84% 29.95 in 10.0 mi SSE 16.1 mph - N/A   Scattered Clouds
1:58 AM 72.5 °F - 67.5 °F 84% 29.93 in 10.0 mi SSE 16.1 mph - N/A   Clear
2:58 AM 71.8 °F - 66.7 °F 84% 29.91 in 10.0 mi SE 18.4 mph - N/A   Clear
3:58 AM 71.1 °F - 66.7 °F 86% 29.91 in 10.0 mi SSE 11.5 mph - N/A   Clear
4:58 AM 69.8 °F - 66.6 °F 89% 29.89 in 10.0 mi SE 15.0 mph - N/A   Clear
5:58 AM 68.9 °F - 67.5 °F 95% 29.92 in 10.0 mi SE 10.4 mph - N/A   Clear
6:48 AM 68.0 °F - 68.0 °F 100% 29.98 in 10.0 mi SE 8.1 mph - N/A   Mostly Cloudy
6:53 AM 68.0 °F - 68.0 °F 100% 29.98 in 10.0 mi SE 9.2 mph - N/A   Mostly Cloudy
6:58 AM 68.7 °F - 68.5 °F 99% 29.94 in 10.0 mi SE 9.2 mph - N/A   Mostly Cloudy
7:58 AM 70.3 °F - 68.2 °F 93% 29.96 in 10.0 mi SSE 12.7 mph - N/A   Overcast
8:58 AM 73.2 °F - 68.4 °F 85% 29.97 in 10.0 mi SSE 12.7 mph - N/A   Overcast
9:18 AM 73.4 °F - 68.0 °F 83% 30.02 in 10.0 mi South 11.5 mph - N/A   Overcast
9:43 AM 77.0 °F - 68.0 °F 74% 30.01 in 10.0 mi SSE 15.0 mph - N/A   Scattered Clouds
9:58 AM 78.1 °F - 67.8 °F 71% 29.96 in 10.0 mi SSE 15.0 mph - N/A   Partly Cloudy
10:58 AM 81.7 °F 84.2 °F 67.3 °F 61% 29.96 in 10.0 mi SSE 15.0 mph 23.0 mph N/A   Partly Cloudy
11:58 AM 85.3 °F 87.6 °F 66.2 °F 53% 29.94 in 10.0 mi SSE 15.0 mph 23.0 mph N/A   Clear
12:58 PM 88.5 °F 90.1 °F 64.6 °F 45% 29.92 in 10.0 mi South 20.7 mph 26.5 mph N/A   Clear
1:58 PM 90.7 °F 92.1 °F 64.0 °F 41% 29.88 in 10.0 mi SSE 21.9 mph 27.6 mph N/A   Partly Cloudy
2:58 PM 92.5 °F 94.1 °F 63.9 °F 39% 29.84 in 10.0 mi SSE 19.6 mph 28.8 mph N/A   Clear
3:58 PM 93.0 °F 94.6 °F 63.7 °F 38% 29.83 in 10.0 mi South 24.2 mph 34.5 mph N/A   Partly Cloudy
4:58 PM 93.2 °F 94.5 °F 63.7 °F 37% 29.81 in 10.0 mi South 23.0 mph 34.5 mph 0.01 in   Clear
5:58 PM 93.6 °F 94.6 °F 62.6 °F 36% 29.80 in 10.0 mi SSE 20.7 mph 31.1 mph N/A   Clear
6:58 PM 91.4 °F 92.1 °F 62.6 °F 38% 29.78 in 10.0 mi South 19.6 mph - N/A   Clear
7:58 PM 89.8 °F 90.4 °F 62.8 °F 40% 29.78 in 10.0 mi SE 20.7 mph 28.8 mph N/A   Clear
8:58 PM 86.4 °F 87.6 °F 64.0 °F 47% 29.80 in 10.0 mi SE 15.0 mph - N/A   Clear
9:58 PM 83.8 °F 86.0 °F 65.8 °F 55% 29.81 in 10.0 mi SE 19.6 mph 27.6 mph N/A   Clear
10:58 PM 82.6 °F 84.3 °F 65.1 °F 55% 29.83 in 10.0 mi SE 18.4 mph - N/A   Clear
11:58 PM 81.1 °F 82.5 °F 63.7 °F 55% 29.83 in 10.0 mi SSE 20.7 mph 25.3 mph N/A   Clear